Theta_e
303 303 303 303 303 303 303 303 303 302 302 302 302 302 303 303 304 304 305 307 306 306 310 312 314 314 311 313 311 312 308 307 308 310 311 314 315 316 317 317 318 318 326 326 328
303 303 303 303 303 303 303 303 303 303 303 303 302 302 302 303 302 304 309 310 308 307 306 311 313 313 311 311 312 308 307 307 309 310 312 314 314 315 316 315 317 317 320 330 338
304 304 304 304 304 303 303 304 304 304 303 303 303 302 302 304 303 308 316 317 317 314 307 311 312 313 311 310 310 308 308 308 311 313 314 313 314 315 314 314 316 317 317 335 349
304 304 304 304 304 304 304 304 305 304 304 303 303 302 304 305 304 312 316 317 316 318 312 312 311 312 307 306 309 307 307 311 311 314 314 313 315 313 314 315 317 317 317 334 351
301 301 301 301 301 301 302 302 303 303 303 304 304 304 306 307 306 307 308 314 317 316 317 313 313 312 307 306 307 305 307 309 312 313 313 313 312 312 313 315 316 316 317 328 352
298 298 298 298 298 298 298 298 299 300 300 301 301 307 306 307 308 307 307 308 307 308 316 314 313 313 312 308 309 309 308 309 310 310 312 312 312 313 314 315 315 316 317 321 351
297 297 297 297 297 297 297 298 298 298 298 298 299 307 307 307 306 307 306 308 315 313 313 314 315 314 313 310 312 309 310 308 306 308 307 310 309 310 312 314 314 316 316 318 337
297 297 297 297 297 297 297 297 298 298 298 298 302 307 308 307 305 305 306 306 309 319 317 316 315 315 312 311 310 309 309 310 308 307 308 309 309 311 313 314 315 316 316 317 317
296 296 296 296 297 297 297 298 298 301 303 305 308 308 308 307 307 308 309 308 308 308 318 319 317 315 313 310 310 308 307 308 310 306 309 307 310 311 313 314 314 316 316 317 317
296 296 296 296 297 297 297 298 300 302 309 308 308 307 307 308 308 312 314 314 311 308 308 311 317 314 314 311 314 309 309 308 309 308 307 307 307 309 311 312 313 315 316 317 316
295 295 295 296 297 297 298 299 299 303 308 309 309 310 305 306 313 313 313 312 312 311 309 311 320 319 316 315 314 311 310 310 308 309 308 309 308 308 309 310 310 312 315 315 315
296 295 296 297 297 302 302 299 299 303 302 302 300 301 302 305 307 307 308 312 312 316 313 317 320 318 316 315 315 313 310 310 312 311 310 311 310 310 310 310 312 312 314 315 316
296 296 296 298 300 307 306 300 301 301 301 303 304 305 308 309 307 310 311 310 312 315 316 315 317 318 315 315 315 314 311 311 313 313 312 313 311 312 312 312 314 314 315 316 316
296 296 299 301 305 307 306 304 302 301 305 307 309 310 310 312 311 312 312 311 310 311 316 317 316 319 316 314 314 314 311 312 313 313 312 312 311 311 312 312 313 314 316 316 317
296 297 302 305 306 306 307 305 306 305 306 303 308 311 311 311 310 313 314 312 312 310 314 320 318 317 319 316 312 311 311 313 314 312 312 312 310 309 312 314 313 313 315 318 318
296 298 303 304 304 304 307 307 306 310 309 307 308 310 310 309 309 312 316 314 313 313 313 317 317 316 314 314 312 313 313 313 312 310 312 312 310 310 312 314 314 314 316 318 319
296 300 302 303 303 303 306 308 306 308 306 307 310 310 310 309 309 316 317 317 315 316 315 317 319 317 315 313 315 314 312 310 312 312 314 310 310 310 312 318 318 317 317 317 318
296 299 302 303 302 306 307 307 308 307 306 310 310 310 311 310 313 315 316 317 316 316 316 320 321 320 317 316 317 316 313 310 313 313 311 311 312 313 325 326 330 327 317 316 317
296 301 302 302 303 305 307 307 310 310 308 311 309 312 311 312 312 312 315 316 315 317 321 319 321 319 320 317 316 316 315 310 311 312 310 312 314 323 327 327 330 331 331 331 332
298 301 302 301 303 305 304 306 307 307 308 309 313 314 314 313 314 312 315 315 316 316 315 320 319 322 320 321 318 318 314 314 313 317 314 316 316 316 327 327 327 327 326 327 329
299 301 301 302 302 303 299 304 305 306 305 309 311 312 312 313 314 313 314 316 316 316 317 315 321 322 321 323 323 320 318 315 312 312 316 323 324 323 327 327 326 328 326 325 326
301 297 301 301 299 299 301 302 303 306 304 307 307 310 310 312 313 315 315 316 316 316 318 319 321 322 322 320 322 319 316 314 315 315 315 318 324 324 327 327 327 326 323 320 322
300 301 301 301 300 301 302 302 303 304 304 307 306 310 310 311 312 315 315 315 317 318 318 318 322 323 321 320 322 323 315 314 312 314 317 320 327 325 326 327 325 322 319 318 319
300 300 300 301 301 301 302 302 304 303 305 304 306 307 309 309 312 311 315 314 312 318 319 317 321 319 322 320 321 321 317 316 314 315 316 318 327 328 327 326 323 320 318 318 319
299 298 300 301 300 300 301 302 304 304 304 305 307 307 309 309 311 312 311 311 314 318 318 317 318 319 320 320 320 320 318 316 316 315 318 323 327 326 325 325 323 320 318 317 317
299 300 300 300 301 301 302 303 304 304 304 305 307 308 307 308 309 309 310 311 314 312 317 315 317 321 323 319 320 320 319 318 318 318 322 324 324 324 324 323 322 320 319 318 315
299 299 300 300 300 301 303 303 304 304 304 304 305 305 307 307 306 306 306 307 309 311 314 317 313 321 324 322 322 322 323 321 322 321 323 324 323 323 324 323 321 317 315 313 310
Wind_Speed
25 24 24 24 24 24 24 24 24 25 25 25 23 22 24 26 26 28 36 26 24 14 17 15 12 14 23 11 12 8 2 5 7 7 5 4 4 6 4 7 6 3 11 19 17
26 27 27 27 27 26 25 24 24 24 24 24 25 25 24 23 24 33 27 26 22 24 28 27 16 14 13 14 10 6 5 10 7 5 4 4 4 3 4 8 5 2 17 16 20
26 26 27 28 28 27 27 27 27 27 26 25 27 26 25 22 26 3 1 2 2 11 27 22 23 18 10 10 12 8 8 6 7 11 12 6 8 10 5 6 11 4 19 16 14
27 28 29 29 29 30 31 30 30 29 29 28 27 28 24 20 8 3 8 2 3 3 19 23 25 15 8 9 16 6 12 10 9 13 6 4 15 8 15 15 17 14 17 17 16
28 29 29 29 29 30 30 30 30 30 30 30 28 27 19 12 30 24 19 17 13 11 21 30 29 21 10 7 7 4 3 15 29 23 18 21 10 13 14 12 17 20 19 16 19
30 30 31 32 32 33 33 33 30 30 33 30 28 19 17 21 27 11 11 17 26 30 20 27 21 24 13 5 13 8 18 17 13 16 24 17 24 22 4 5 13 15 17 16 20
32 33 34 35 35 36 36 34 33 33 34 33 34 19 25 42 34 28 27 12 11 16 25 27 24 23 14 2 26 5 4 4 10 21 7 11 19 17 19 17 24 22 17 17 20
34 34 34 35 36 37 39 38 36 35 34 34 25 18 23 30 35 41 36 41 29 21 25 21 31 19 6 7 2 7 8 10 6 10 9 17 29 3 10 15 19 20 21 20 19
35 36 37 37 38 40 42 42 36 22 19 17 13 15 14 16 20 12 14 25 16 37 25 18 17 12 9 4 2 5 4 6 4 9 7 12 1 10 24 17 19 23 22 23 23
38 39 40 41 41 41 45 43 20 14 3 3 2 6 15 11 10 5 1 6 4 11 25 20 13 6 10 10 13 5 4 3 9 9 9 9 5 9 13 13 19 26 25 24 23
39 41 40 42 43 44 43 28 11 6 3 8 12 19 37 28 8 3 4 2 9 12 13 19 10 21 23 22 16 2 5 12 6 6 9 18 8 10 13 13 11 19 23 22 22
39 40 40 42 43 33 25 18 17 10 17 26 37 43 48 37 22 38 23 6 11 10 11 8 28 16 10 15 17 16 6 6 4 4 6 5 8 9 10 6 14 22 26 27 23
38 38 39 42 30 26 23 15 4 12 7 17 19 16 14 6 17 18 18 20 11 8 21 23 6 19 17 16 19 20 18 4 4 1 2 1 5 5 8 6 13 19 23 23 24
37 37 38 36 12 25 18 17 14 16 5 8 5 4 4 4 6 10 8 9 10 11 12 17 19 23 23 20 16 18 12 8 4 2 3 3 5 5 6 8 5 16 22 26 27
36 35 27 19 22 22 22 18 14 2 5 3 2 9 1 5 11 10 14 15 13 18 10 11 20 17 22 20 20 9 18 9 4 4 1 2 1 6 3 5 9 9 26 26 25
36 28 16 19 21 25 22 20 6 3 7 5 1 7 8 11 7 5 2 6 9 14 17 20 18 16 13 16 19 9 15 8 4 4 3 6 6 5 5 5 5 6 17 21 23
36 21 17 19 25 25 20 13 3 4 6 7 8 9 19 13 6 3 3 6 6 7 19 16 22 11 18 14 12 21 12 4 3 3 7 6 7 8 3 4 3 7 4 5 10
36 24 18 24 27 20 11 1 5 6 6 16 10 21 6 4 5 3 2 4 9 9 7 13 13 23 16 14 15 15 14 5 6 6 3 5 5 4 4 6 8 10 13 9 5
39 16 23 26 21 16 5 2 4 6 9 9 16 6 3 9 7 9 5 4 6 9 7 14 6 14 9 5 13 14 11 7 6 1 5 4 0 1 7 10 10 12 19 22 23
35 14 25 28 17 14 3 6 4 7 11 8 6 4 4 6 4 4 5 5 3 8 3 2 9 7 24 2 13 21 11 8 2 6 5 4 7 4 3 8 9 11 16 23 27
23 10 22 27 11 9 2 5 11 17 22 6 8 6 5 5 4 4 6 4 9 5 11 6 3 5 8 9 11 7 13 4 5 4 5 4 3 2 7 7 11 11 17 25 32
14 4 21 30 8 3 7 13 13 14 27 7 8 3 4 5 5 3 4 6 11 8 1 7 1 5 5 9 11 11 15 7 6 3 1 3 2 2 6 10 13 17 22 28 37
15 6 11 18 5 5 9 11 12 18 18 7 7 10 10 6 5 8 6 7 4 9 4 2 2 5 3 4 12 12 5 10 5 3 4 5 2 4 7 11 17 22 27 32 42
9 5 8 7 15 4 12 8 12 21 13 17 10 8 14 10 5 4 9 10 22 3 7 7 3 3 6 4 12 11 7 15 5 4 3 2 9 9 9 13 15 23 27 33 40
10 3 4 6 9 13 14 6 16 13 3 11 5 10 14 8 9 6 6 9 12 11 4 1 3 2 4 17 18 18 14 13 9 5 5 9 13 17 14 16 18 28 25 25 26
8 6 8 13 15 8 9 4 17 14 9 11 7 14 14 9 12 8 10 4 4 11 5 4 4 4 6 10 18 11 15 15 7 6 4 16 6 10 18 20 21 23 23 22 19
18 17 10 8 5 6 6 17 21 19 12 16 18 19 14 14 16 26 22 15 15 8 5 5 3 4 4 5 8 12 3 9 4 1 13 7 9 16 16 18 19 23 24 25 24
Wind_Direction
349 347 344 343 340 339 337 335 333 331 330 326 320 315 309 305 301 294 282 289 276 246 238 230 226 213 194 193 190 190 179 211 219 196 238 320 178 175 201 265 311 304 277 266 275
347 345 341 340 338 336 333 330 328 325 323 321 320 318 317 311 308 293 292 280 258 238 228 217 201 179 173 202 199 172 195 211 209 203 227 229 276 3 313 312 295 12 330 302 246
343 341 339 338 336 333 329 327 325 322 320 316 314 311 313 319 318 279 159 110 121 220 216 213 205 185 173 185 192 202 221 202 216 216 239 241 262 260 201 262 261 339 328 314 215
342 339 337 335 333 330 328 327 325 322 318 314 313 311 311 309 292 252 214 237 56 251 203 191 194 181 179 194 198 219 221 207 217 224 237 252 252 274 227 241 262 279 315 294 203
340 337 334 332 330 326 322 322 321 317 312 310 310 310 307 277 258 261 261 255 250 255 214 194 184 192 177 195 183 217 220 209 230 240 247 261 245 255 246 247 262 280 288 278 203
340 336 333 331 329 325 321 320 315 308 306 306 306 294 272 259 284 304 258 258 248 246 218 200 206 199 207 207 197 203 199 227 228 227 240 252 262 254 65 256 274 271 270 243 213
339 337 335 332 330 326 322 318 313 307 304 301 296 270 252 246 271 270 272 249 253 227 224 226 203 186 201 177 233 178 237 259 229 225 209 212 268 241 254 262 273 273 271 227 214
338 336 334 332 330 327 324 320 319 310 296 290 282 250 254 267 282 268 261 250 231 213 214 227 218 213 194 220 1 194 230 247 189 179 221 198 254 26 235 229 237 253 248 235 215
338 337 338 335 332 328 324 322 324 314 300 280 253 213 263 277 267 290 255 240 249 225 217 207 212 211 190 122 289 222 195 193 192 200 177 184 134 244 246 239 236 245 245 235 228
339 339 339 336 332 329 325 328 325 318 36 71 139 199 254 255 274 335 118 237 187 197 209 215 201 191 211 185 210 194 174 186 188 207 207 222 217 281 262 234 235 240 235 232 225
339 339 338 336 333 331 326 342 350 306 258 232 243 242 269 263 242 183 281 308 197 172 201 191 203 209 200 210 221 227 186 202 204 204 164 230 241 236 254 242 227 240 244 238 230
338 338 337 334 333 337 340 330 327 303 293 274 272 262 266 262 278 267 245 250 172 195 186 177 223 197 187 197 212 231 245 236 257 195 160 226 242 226 249 220 230 234 238 245 246
339 339 336 331 336 353 345 340 304 324 276 290 259 249 265 228 224 271 194 215 225 205 194 202 253 198 189 189 197 213 218 195 155 208 141 138 288 215 252 225 243 249 245 246 243
342 342 336 331 352 352 359 338 309 300 288 278 230 244 193 179 219 237 209 172 185 228 224 221 224 192 191 206 186 209 192 187 205 102 213 144 267 261 225 268 252 261 257 242 239
344 347 344 355 337 347 336 325 333 205 312 283 259 99 54 215 284 204 197 204 200 197 194 212 192 185 197 201 184 208 179 194 192 170 142 227 41 271 244 258 268 254 247 239 237
344 349 339 344 336 336 331 322 318 259 253 304 260 358 349 297 278 223 148 196 222 230 214 217 189 187 197 200 188 181 163 158 145 126 262 187 161 274 200 205 287 258 224 222 228
346 353 353 352 341 326 329 325 319 227 332 317 336 344 320 303 295 185 175 197 139 197 217 203 221 212 171 176 186 186 156 121 116 163 217 208 151 240 169 10 309 308 358 231 225
345 345 2 359 345 350 341 324 228 272 291 337 325 313 294 341 305 242 197 244 203 226 184 204 204 213 190 187 185 197 166 148 161 179 173 118 219 237 50 32 48 69 83 89 149
346 5 12 359 349 355 19 309 314 335 329 315 306 279 290 304 342 319 222 241 202 197 195 203 247 179 209 146 159 175 196 172 100 113 107 197 31 353 62 57 67 73 86 90 96
350 356 11 1 354 342 52 319 297 305 305 298 285 260 277 305 275 292 207 195 223 213 220 225 197 218 200 207 180 183 159 166 102 158 176 210 165 189 94 109 103 99 96 101 103
357 350 2 3 4 24 60 292 302 315 332 296 299 283 279 289 271 269 283 254 160 267 213 204 249 156 142 195 188 131 180 123 117 147 150 136 250 303 145 134 122 98 102 99 106
1 352 0 6 42 358 344 317 302 310 333 321 299 302 268 309 282 287 288 294 147 208 338 218 7 118 176 168 186 191 174 151 176 196 116 118 236 114 115 117 117 104 97 99 108
342 308 1 13 23 342 330 316 295 332 328 339 303 334 346 302 303 305 277 302 339 192 176 245 49 105 76 352 185 222 184 148 128 107 193 125 180 133 120 124 120 116 111 107 111
353 344 340 359 358 314 322 323 327 330 310 341 287 327 338 317 313 325 336 333 328 345 106 101 277 216 161 196 139 196 175 169 124 109 153 190 142 155 150 139 125 122 119 117 121
14 349 337 320 323 320 318 286 323 338 313 315 304 337 336 312 316 349 353 325 331 6 90 63 310 280 131 139 149 174 167 157 161 176 143 173 151 169 159 146 135 128 125 121 118
2 338 321 297 292 304 312 307 319 323 315 306 269 310 312 287 289 302 333 346 320 343 353 15 313 301 55 139 152 163 157 149 143 133 65 137 94 141 143 124 134 135 126 118 107
346 337 303 295 305 316 328 319 310 317 305 296 296 302 297 302 320 302 289 276 275 297 308 351 8 332 72 105 72 130 128 126 83 75 143 152 166 143 147 143 145 132 120 115 117